Location: Newark
(47.5833°N, 8.1500°E)
Time: 14:24:43
(UTC+00:00)

Transit 4A - Visible Passes

Search period start: 31 October 2020 00:00
Search period end: 10 November 2020 00:00
Orbit: 862 x 982 km, 66.8° (Epoch: 30 October)

Date Brightness Start Highest point End Pass type
(mag) Time Alt. Az. Time Alt. Az. Time Alt. Az.
31 Oct 10.1 17:38:32 10° NW 17:41:54 14° N 17:45:17 10° NNE visible
31 Oct 10.0 19:27:22 10° NNW 19:30:29 16° N 19:30:29 16° N visible
31 Oct 10.7 21:13:34 10° NNW 21:13:59 12° NNW 21:13:59 12° NNW visible
01 Nov 10.1 17:48:48 10° NW 17:51:52 14° N 17:54:56 10° NNE visible
01 Nov 10.0 19:36:45 10° NNW 19:39:28 17° N 19:39:28 17° N visible
01 Nov 10.8 21:22:51 10° NNW 21:22:58 11° NNW 21:22:58 11° NNW visible
02 Nov 10.1 17:58:51 10° NNW 18:01:51 13° N 18:04:50 10° NNE visible
02 Nov 10.0 19:46:03 10° NNW 19:48:28 18° N 19:48:28 18° N visible
03 Nov 10.0 18:08:40 10° NNW 18:11:49 14° N 18:13:59 12° NNE visible
03 Nov 10.0 19:55:20 10° NNW 19:57:29 18° N 19:57:29 18° N visible
04 Nov 10.0 16:28:51 10° NW 16:32:29 15° NNW 16:36:08 10° NNE visible
04 Nov 9.9 18:18:16 10° NNW 18:21:46 15° NNE 18:23:01 14° NNE visible
04 Nov 10.1 20:04:36 10° NNW 20:06:31 18° NNW 20:06:31 18° NNW visible
05 Nov 10.0 16:39:11 10° NW 16:42:26 14° N 16:45:41 10° NNE visible
05 Nov 9.7 18:27:43 10° NNW 18:31:41 17° NNE 18:32:04 17° NNE visible
05 Nov 10.1 20:13:52 10° NNW 20:15:34 18° NNW 20:15:34 18° NNW visible
06 Nov 10.0 16:49:23 10° NNW 16:52:24 13° N 16:55:25 10° NNE visible
06 Nov 9.6 18:37:03 10° NNW 18:41:07 19° NNE 18:41:07 19° NNE visible
06 Nov 10.2 20:23:08 10° NNW 20:24:38 18° NNW 20:24:38 18° NNW visible
07 Nov 10.0 16:59:21 10° NNW 17:02:23 13° N 17:05:24 10° NNE visible
07 Nov 9.5 18:46:21 10° NNW 18:50:12 22° NNE 18:50:12 22° NNE visible
07 Nov 10.3 20:32:27 10° NNW 20:33:43 17° NNW 20:33:43 17° NNW visible
08 Nov 9.9 17:09:06 10° NNW 17:12:21 14° N 17:15:36 10° NE visible
08 Nov 9.4 18:55:37 10° NNW 18:59:19 25° N 18:59:19 25° N visible
08 Nov 10.4 20:41:48 10° NW 20:42:49 15° NW 20:42:49 15° NW visible
09 Nov 9.8 17:18:38 10° NNW 17:22:18 15° NNE 17:24:57 12° NE visible
09 Nov 9.3 19:04:53 10° NNW 19:08:27 27° N 19:08:27 27° N visible
09 Nov 10.5 20:51:13 10° NW 20:51:58 14° NW 20:51:58 14° NW visible
